Time,TemperatureF,DewpointF,PressureIn,WindDirection,WindDirectionDegrees,WindSpeedMPH,WindSpeedGustMPH,Humidity,HourlyPrecipIn,Conditions,Clouds,dailyrainin,SolarRadiationWatts/m^2,SoftwareType,DateUTC
2013-08-07 00:01:00,64.0,34.0,-100.00,NW,317,18.0,27.0,32,-99.99,,,0.00,0.000000,,2013-08-07 07:01:00,
2013-08-07 00:12:00,64.0,34.0,-100.00,NW,317,18.0,27.0,32,-99.99,,,0.00,0.000000,,2013-08-07 07:12:00,
2013-08-07 00:21:00,64.0,34.0,-100.00,NW,317,18.0,27.0,32,-99.99,,,0.00,0.000000,,2013-08-07 07:21:00,
2013-08-07 00:52:00,61.0,32.0,-100.00,NW,324,20.0,25.0,34,0.00,,,0.00,0.000000,,2013-08-07 07:52:00,
2013-08-07 01:01:00,61.0,32.0,-100.00,NW,324,20.0,25.0,34,0.00,,,0.00,0.000000,,2013-08-07 08:01:00,
2013-08-07 01:11:00,61.0,32.0,-100.00,NW,324,20.0,25.0,34,0.00,,,0.00,0.000000,,2013-08-07 08:11:00,
2013-08-07 01:21:00,61.0,32.0,-100.00,NW,324,20.0,25.0,34,0.00,,,0.00,0.000000,,2013-08-07 08:21:00,
2013-08-07 01:52:00,60.0,31.0,-100.00,NW,311,20.0,24.0,33,0.00,,,0.00,0.000000,,2013-08-07 08:52:00,
2013-08-07 02:01:00,60.0,31.0,-100.00,NW,311,20.0,24.0,33,0.00,,,0.00,0.000000,,2013-08-07 09:01:00,
2013-08-07 02:11:00,60.0,31.0,-100.00,NW,311,20.0,24.0,33,0.00,,,0.00,0.000000,,2013-08-07 09:11:00,
2013-08-07 02:21:00,60.0,31.0,-100.00,NW,311,20.0,24.0,33,0.00,,,0.00,0.000000,,2013-08-07 09:21:00,
2013-08-07 02:54:00,61.0,35.0,-100.00,NW,317,22.0,28.0,37,0.00,,,0.00,0.000000,,2013-08-07 09:54:00,
2013-08-07 03:01:00,61.0,35.0,-100.00,NW,317,22.0,28.0,37,0.00,,,0.00,0.000000,,2013-08-07 10:01:00,
2013-08-07 03:11:00,61.0,35.0,-100.00,NW,317,22.0,28.0,37,0.00,,,0.00,0.000000,,2013-08-07 10:11:00,
2013-08-07 03:21:00,61.0,35.0,-100.00,NW,317,22.0,28.0,37,0.00,,,0.00,0.000000,,2013-08-07 10:21:00,
2013-08-07 03:52:00,58.0,34.0,-100.00,NW,319,22.0,28.0,40,0.00,,,0.00,0.000000,,2013-08-07 10:52:00,
2013-08-07 04:01:00,58.0,34.0,-100.00,NW,319,22.0,28.0,40,0.00,,,0.00,0.000000,,2013-08-07 11:01:00,
2013-08-07 04:11:00,58.0,34.0,-100.00,NW,319,22.0,28.0,40,0.00,,,0.00,0.000000,,2013-08-07 11:11:00,
2013-08-07 04:22:00,58.0,34.0,-100.00,NW,319,22.0,28.0,40,0.00,,,0.00,0.000000,,2013-08-07 11:22:00,
2013-08-07 04:53:00,57.0,36.0,-100.00,NW,314,24.0,29.0,45,0.00,,,-99.99,0.000000,,2013-08-07 11:53:00,
2013-08-07 05:02:00,57.0,36.0,-100.00,NW,314,24.0,29.0,45,0.00,,,-99.99,0.000000,,2013-08-07 12:02:00,
2013-08-07 05:11:00,57.0,36.0,-100.00,NW,314,24.0,29.0,45,0.00,,,-99.99,0.000000,,2013-08-07 12:11:00,
2013-08-07 05:22:00,57.0,36.0,-100.00,NW,314,24.0,29.0,45,0.00,,,-99.99,0.000000,,2013-08-07 12:22:00,
2013-08-07 05:52:00,56.0,38.0,-100.00,NW,315,23.0,30.0,51,0.00,,,0.00,0.000000,,2013-08-07 12:52:00,
2013-08-07 06:02:00,56.0,38.0,-100.00,NW,315,23.0,30.0,51,0.00,,,0.00,0.000000,,2013-08-07 13:02:00,
2013-08-07 06:11:00,56.0,38.0,-100.00,NW,315,23.0,30.0,51,0.00,,,0.00,0.000000,,2013-08-07 13:11:00,
2013-08-07 06:22:00,56.0,38.0,-100.00,NW,315,23.0,30.0,51,0.00,,,0.00,0.000000,,2013-08-07 13:22:00,
2013-08-07 06:53:00,56.0,40.0,-100.00,NW,323,25.0,30.0,54,0.00,,,0.00,0.000000,,2013-08-07 13:53:00,
2013-08-07 07:01:00,56.0,40.0,-100.00,NW,323,25.0,30.0,54,0.00,,,0.00,0.000000,,2013-08-07 14:01:00,
2013-08-07 07:11:00,56.0,40.0,-100.00,NW,323,25.0,30.0,54,0.00,,,0.00,0.000000,,2013-08-07 14:11:00,
2013-08-07 07:22:00,56.0,40.0,-100.00,NW,323,25.0,30.0,54,0.00,,,0.00,0.000000,,2013-08-07 14:22:00,
2013-08-07 08:02:00,55.0,39.0,-100.00,NW,319,27.0,32.0,54,0.00,,,0.00,5.000000,,2013-08-07 15:02:00,
2013-08-07 08:12:00,55.0,39.0,-100.00,NW,319,27.0,32.0,54,0.00,,,0.00,5.000000,,2013-08-07 15:12:00,
2013-08-07 08:22:00,55.0,39.0,-100.00,NW,319,27.0,32.0,54,0.00,,,0.00,5.000000,,2013-08-07 15:22:00,
2013-08-07 08:53:00,57.0,39.0,-100.00,NW,319,25.0,33.0,51,0.00,,,0.00,174.000000,,2013-08-07 15:53:00,
2013-08-07 09:02:00,57.0,39.0,-100.00,NW,319,25.0,33.0,51,0.00,,,0.00,174.000000,,2013-08-07 16:02:00,
2013-08-07 09:11:00,57.0,39.0,-100.00,NW,319,25.0,33.0,51,0.00,,,0.00,174.000000,,2013-08-07 16:11:00,
2013-08-07 09:22:00,57.0,39.0,-100.00,NW,319,25.0,33.0,51,0.00,,,0.00,174.000000,,2013-08-07 16:22:00,
2013-08-07 09:53:00,57.0,36.0,-100.00,NW,317,22.0,32.0,45,0.00,,,0.00,441.000000,,2013-08-07 16:53:00,
2013-08-07 10:01:00,57.0,36.0,-100.00,NW,317,22.0,32.0,45,0.00,,,0.00,441.000000,,2013-08-07 17:01:00,
2013-08-07 10:11:00,57.0,36.0,-100.00,NW,317,22.0,32.0,45,0.00,,,0.00,441.000000,,2013-08-07 17:11:00,
2013-08-07 10:22:00,57.0,36.0,-100.00,NW,317,22.0,32.0,45,0.00,,,0.00,441.000000,,2013-08-07 17:22:00,
2013-08-07 10:52:00,60.0,35.0,-100.00,WNW,299,19.0,30.0,39,0.00,,,0.00,703.000000,,2013-08-07 17:52:00,
2013-08-07 11:02:00,60.0,35.0,-100.00,WNW,299,19.0,30.0,39,0.00,,,0.00,703.000000,,2013-08-07 18:02:00,
2013-08-07 11:11:00,60.0,35.0,-100.00,WNW,299,19.0,30.0,39,0.00,,,0.00,703.000000,,2013-08-07 18:11:00,
2013-08-07 11:22:00,60.0,35.0,-100.00,WNW,299,19.0,30.0,39,0.00,,,0.00,703.000000,,2013-08-07 18:22:00,
2013-08-07 11:52:00,65.0,34.0,-100.00,West,275,17.0,32.0,31,0.00,,,0.00,935.000000,,2013-08-07 18:52:00,
2013-08-07 12:01:00,65.0,34.0,-100.00,West,275,17.0,32.0,31,0.00,,,0.00,935.000000,,2013-08-07 19:01:00,
2013-08-07 12:11:00,65.0,34.0,-100.00,West,275,17.0,32.0,31,0.00,,,0.00,935.000000,,2013-08-07 19:11:00,
2013-08-07 12:22:00,65.0,34.0,-100.00,West,275,17.0,32.0,31,0.00,,,0.00,935.000000,,2013-08-07 19:22:00,
2013-08-07 12:52:00,68.0,14.0,-100.00,West,280,26.0,38.0,12,0.00,,,0.00,1115.000000,,2013-08-07 19:52:00,
2013-08-07 13:02:00,68.0,14.0,-100.00,West,280,26.0,38.0,12,0.00,,,0.00,1115.000000,,2013-08-07 20:02:00,
2013-08-07 13:11:00,68.0,14.0,-100.00,West,280,26.0,38.0,12,0.00,,,0.00,1115.000000,,2013-08-07 20:11:00,
2013-08-07 13:22:00,68.0,14.0,-100.00,West,280,26.0,38.0,12,0.00,,,0.00,1115.000000,,2013-08-07 20:22:00,
2013-08-07 14:01:00,71.0,18.0,-100.00,West,281,29.0,39.0,13,0.00,,,0.00,1225.000000,,2013-08-07 21:01:00,
2013-08-07 14:11:00,71.0,18.0,-100.00,West,281,29.0,39.0,13,0.00,,,0.00,1225.000000,,2013-08-07 21:11:00,
2013-08-07 14:22:00,71.0,18.0,-100.00,West,281,29.0,39.0,13,0.00,,,0.00,1225.000000,,2013-08-07 21:22:00,
2013-08-07 14:52:00,70.0,11.0,-100.00,WNW,282,31.0,40.0,10,0.00,,,0.00,1281.000000,,2013-08-07 21:52:00,
2013-08-07 15:01:00,70.0,11.0,-100.00,WNW,282,31.0,40.0,10,0.00,,,0.00,1281.000000,,2013-08-07 22:01:00,
2013-08-07 15:12:00,70.0,11.0,-100.00,WNW,282,31.0,40.0,10,0.00,,,0.00,1281.000000,,2013-08-07 22:12:00,
2013-08-07 15:22:00,70.0,11.0,-100.00,WNW,282,31.0,40.0,10,0.00,,,0.00,1281.000000,,2013-08-07 22:22:00,
2013-08-07 15:52:00,71.0,16.0,-100.00,WNW,283,32.0,40.0,12,0.00,,,0.00,1255.000000,,2013-08-07 22:52:00,
2013-08-07 16:01:00,71.0,16.0,-100.00,WNW,283,32.0,40.0,12,0.00,,,0.00,1255.000000,,2013-08-07 23:01:00,
2013-08-07 16:11:00,71.0,16.0,-100.00,WNW,283,32.0,40.0,12,0.00,,,0.00,1255.000000,,2013-08-07 23:11:00,
2013-08-07 16:22:00,71.0,16.0,-100.00,WNW,283,32.0,40.0,12,0.00,,,0.00,1255.000000,,2013-08-07 23:22:00,
2013-08-07 16:52:00,72.0,17.0,-100.00,WNW,283,32.0,45.0,12,0.00,,,0.00,1155.000000,,2013-08-07 23:52:00,
2013-08-07 17:01:00,72.0,17.0,-100.00,WNW,283,32.0,45.0,12,0.00,,,0.00,1155.000000,,2013-08-08 00:01:00,
2013-08-07 17:11:00,72.0,17.0,-100.00,WNW,283,32.0,45.0,12,0.00,,,0.00,1155.000000,,2013-08-08 00:11:00,
2013-08-07 17:22:00,72.0,17.0,-100.00,WNW,283,32.0,45.0,12,0.00,,,0.00,1155.000000,,2013-08-08 00:22:00,
2013-08-07 17:52:00,71.0,19.0,-100.00,West,280,31.0,48.0,14,0.00,,,0.00,973.000000,,2013-08-08 00:52:00,
2013-08-07 18:02:00,71.0,19.0,-100.00,West,280,31.0,48.0,14,0.00,,,0.00,973.000000,,2013-08-08 01:02:00,
2013-08-07 18:11:00,71.0,19.0,-100.00,West,280,31.0,48.0,14,0.00,,,0.00,973.000000,,2013-08-08 01:11:00,
2013-08-07 18:21:00,71.0,19.0,-100.00,West,280,31.0,48.0,14,0.00,,,0.00,973.000000,,2013-08-08 01:21:00,
2013-08-07 18:52:00,70.0,23.0,-100.00,West,280,32.0,45.0,17,0.00,,,0.00,732.000000,,2013-08-08 01:52:00,
2013-08-07 19:02:00,70.0,23.0,-100.00,West,280,32.0,45.0,17,0.00,,,0.00,732.000000,,2013-08-08 02:02:00,
2013-08-07 19:11:00,70.0,23.0,-100.00,West,280,32.0,45.0,17,0.00,,,0.00,732.000000,,2013-08-08 02:11:00,
2013-08-07 19:22:00,70.0,23.0,-100.00,West,280,32.0,45.0,17,0.00,,,0.00,732.000000,,2013-08-08 02:22:00,
2013-08-07 19:52:00,66.0,21.0,-100.00,West,280,32.0,44.0,18,-99.99,,,0.00,452.000000,,2013-08-08 02:52:00,
2013-08-07 20:01:00,66.0,21.0,-100.00,West,280,32.0,44.0,18,-99.99,,,0.00,452.000000,,2013-08-08 03:01:00,
2013-08-07 20:12:00,66.0,21.0,-100.00,West,280,32.0,44.0,18,-99.99,,,0.00,452.000000,,2013-08-08 03:12:00,
2013-08-07 20:21:00,66.0,21.0,-100.00,West,280,32.0,44.0,18,-99.99,,,0.00,452.000000,,2013-08-08 03:21:00,
2013-08-07 20:52:00,63.0,27.0,-100.00,WNW,290,30.0,45.0,25,-99.99,,,0.00,41.000000,,2013-08-08 03:52:00,
2013-08-07 21:01:00,63.0,27.0,-100.00,WNW,290,30.0,45.0,25,-99.99,,,0.00,41.000000,,2013-08-08 04:01:00,
2013-08-07 21:11:00,63.0,27.0,-100.00,WNW,290,30.0,45.0,25,-99.99,,,0.00,41.000000,,2013-08-08 04:11:00,
2013-08-07 21:22:00,63.0,27.0,-100.00,WNW,290,30.0,45.0,25,-99.99,,,0.00,41.000000,,2013-08-08 04:22:00,
2013-08-07 21:53:00,61.0,30.0,-100.00,WNW,302,25.0,43.0,31,-99.99,,,0.00,7.000000,,2013-08-08 04:53:00,
2013-08-07 22:01:00,61.0,30.0,-100.00,WNW,302,25.0,43.0,31,-99.99,,,0.00,7.000000,,2013-08-08 05:01:00,
2013-08-07 22:11:00,61.0,30.0,-100.00,WNW,302,25.0,43.0,31,-99.99,,,0.00,7.000000,,2013-08-08 05:11:00,
2013-08-07 22:52:00,59.0,34.0,-100.00,WNW,290,24.0,47.0,39,-99.99,,,0.00,0.000000,,2013-08-08 05:52:00,
2013-08-07 23:01:00,59.0,34.0,-100.00,WNW,290,24.0,47.0,39,-99.99,,,0.00,0.000000,,2013-08-08 06:01:00,
2013-08-07 23:11:00,59.0,34.0,-100.00,WNW,290,24.0,47.0,39,-99.99,,,0.00,0.000000,,2013-08-08 06:11:00,
2013-08-07 23:21:00,59.0,34.0,-100.00,WNW,290,24.0,47.0,39,-99.99,,,0.00,0.000000,,2013-08-08 06:21:00,